TimeGST,TemperatureF,Dew PointF,Humidity,Sea Level PressureIn,VisibilityMPH,Wind Direction,Wind SpeedMPH,Gust SpeedMPH,PrecipitationIn,Events,Conditions,WindDirDegrees,DateUTC
12:00 AM,82.4,66.2,58,29.80,-9999.0,East,5.8,-,N/A,,Clear,100,2013-05-01 20:00:00
1:00 AM,83,66,46,29.80,6,,2.3,,,,Partly Cloudy,,2013-05-01 21:00:00
1:00 AM,82.4,66.2,58,29.80,-9999.0,Variable,2.3,-,N/A,,Clear,0,2013-05-01 21:00:00
2:00 AM,82.4,66.2,58,29.77,-9999.0,Variable,3.5,-,N/A,,Clear,0,2013-05-01 22:00:00
3:00 AM,82.4,64.4,54,29.74,-9999.0,East,3.5,-,N/A,,Clear,90,2013-05-01 23:00:00
4:00 AM,83,64,42,29.75,6,ENE,3.5,,,,,60,2013-05-02 00:00:00
4:00 AM,82.4,64.4,54,29.74,-9999.0,ENE,3.5,-,N/A,,Clear,60,2013-05-02 00:00:00
5:00 AM,80.6,68.0,65,29.74,-9999.0,NNW,4.6,-,N/A,,Clear,340,2013-05-02 01:00:00
6:00 AM,80.6,64.4,58,29.77,-9999.0,East,5.8,-,N/A,,Clear,90,2013-05-02 02:00:00
7:00 AM,81,69,60,29.81,6,East,4.6,,,,Scattered Clouds,80,2013-05-02 03:00:00
7:00 AM,80.6,69.8,70,29.80,-9999.0,East,4.6,-,N/A,,Clear,80,2013-05-02 03:00:00
8:00 AM,84.2,68.0,58,29.80,-9999.0,ESE,3.5,-,N/A,,Clear,120,2013-05-02 04:00:00
9:00 AM,86.0,66.2,51,29.83,-9999.0,South,9.2,-,N/A,,Clear,180,2013-05-02 05:00:00
10:00 AM,89,61,29,29.85,6,SSW,8.1,,,,Mostly Cloudy,200,2013-05-02 06:00:00
10:00 AM,89.6,60.8,38,29.83,-9999.0,SSW,8.1,-,N/A,,Clear,200,2013-05-02 06:00:00
11:00 AM,91.4,66.2,43,29.83,-9999.0,SW,9.2,-,N/A,,Clear,230,2013-05-02 07:00:00
12:00 PM,91.4,68.0,46,29.83,-9999.0,WNW,13.8,-,N/A,,Clear,290,2013-05-02 08:00:00
1:00 PM,89,67,38,29.84,6,West,13.8,,,,Mostly Cloudy,270,2013-05-02 09:00:00
1:00 PM,89.6,66.2,46,29.83,-9999.0,West,13.8,-,N/A,,Clear,270,2013-05-02 09:00:00
2:00 PM,87.8,68.0,52,29.80,-9999.0,West,16.1,-,N/A,,Clear,280,2013-05-02 10:00:00
3:00 PM,86.0,68.0,55,29.80,-9999.0,West,16.1,-,N/A,,Clear,270,2013-05-02 11:00:00
4:00 PM,85,69,50,29.81,6,West,15.0,,,,Mostly Cloudy,280,2013-05-02 12:00:00
4:00 PM,86.0,69.8,58,29.80,-9999.0,West,15.0,-,N/A,,Clear,280,2013-05-02 12:00:00
5:00 PM,84.2,69.8,62,29.80,5.6,WNW,16.1,-,N/A,,Unknown,290,2013-05-02 13:00:00
6:00 PM,82.4,69.8,66,29.77,-9999.0,NNW,13.8,-,N/A,,Clear,330,2013-05-02 14:00:00
7:00 PM,81,71,64,29.79,6,North,11.5,,,,Mostly Cloudy,350,2013-05-02 15:00:00
7:00 PM,80.6,71.6,74,29.77,-9999.0,North,11.5,-,N/A,,Clear,350,2013-05-02 15:00:00
8:00 PM,80.6,69.8,70,29.80,-9999.0,NNE,6.9,-,N/A,,Clear,20,2013-05-02 16:00:00
9:00 PM,80.6,69.8,70,29.80,-9999.0,NE,5.8,-,N/A,,Clear,40,2013-05-02 17:00:00
10:00 PM,82,70,59,29.83,6,ENE,4.6,,,,,70,2013-05-02 18:00:00
10:00 PM,82.4,69.8,66,29.83,-9999.0,ENE,4.6,-,N/A,,Clear,70,2013-05-02 18:00:00
11:00 PM,80.6,69.8,70,29.80,-9999.0,East,5.8,-,N/A,,Clear,100,2013-05-02 19:00:00